Location: Bratsk-Energetik
(56.3300°N, 101.7600°E)
Time: 22:51:47
(UTC+08:00)

ISS - Pass Details

Date: 09 May 2021
Orbit: 417 x 422 km, 51.6° (Epoch: 12 June)

Event Time Altitude Azimuth Distance (km) Brightness Sun altitude
Exits shadow 03:23:38 17° 234° (SW) 1,167 -2.1 -11.2°
Maximum altitude 03:25:50 36° 174° (S) 693 -3.1 -11.0°
Drops below altitude 10° 03:28:58 10° 106° (ESE) 1,510 -0.7 -10.8°
Sets 03:31:10 0° 98° (E) 2,375 0.4 -10.6°
